Regional Weather Roundup
Issued by NWS Charleston, WV

Home | Current Version | Previous Version | Graphics & Text | Print | Product List | Glossary On
Versions: 1 2 3 4 5 6 7 8 9 10 11 12 13 14 15 16 17 18 19 20 21 22 23 24 25 26 27 28 29 30 31 32 33 34 35 36 37 38 39 40 41 42 43 44 45 46 47 48 49 50
000
ASUS41 KRLX 281510
RWRRLX
West Virginia Regional Weather Roundup
National Weather Service Charleston WV
1000 AM EST FRI NOV 28 2014

Note: "fair" indicates few or no clouds below 12,000 feet with no
significant weather and/or obstructions to visibility.

WVZ003-281600-
Northern Panhandle of West Virginia

CITY           SKY/WX    TMP DP  RH WIND       PRES   REMARKS
WHEELING       PTSUNNY   24  12  60 W9        30.33F
$$

WVZ009-281600-
Northwest West Virginia

CITY           SKY/WX    TMP DP  RH WIND       PRES   REMARKS
PARKERSBURG    MOSUNNY   28  17  63 NW10      30.41S
$$

WVZ006-281600-
Western West Virginia

CITY           SKY/WX    TMP DP  RH WIND       PRES   REMARKS
HUNTINGTON     CLOUDY    29  19  66 W7        30.40F
$$

WVZ015-281600-
West Central West Virginia

CITY           SKY/WX    TMP DP  RH WIND       PRES   REMARKS
CHARLESTON     FLURRIES  29  16  58 W9        30.40R
$$

WVZ022-031-281600-
North Central West Virginia

CITY           SKY/WX    TMP DP  RH WIND       PRES   REMARKS
CLARKSBURG     FLURRIES  27  19  72 W8        30.34S
MORGANTOWN     LGT SNOW  26  21  81 VRB5      30.33R VSB 1
$$

WVZ025-035-042-045-281600-
Southern West Virginia

CITY           SKY/WX    TMP DP  RH WIND       PRES   REMARKS
BECKLEY        LGT SNOW  23  17  78 NW7       30.29S
LOGAN          CLOUDY    27  21  80 VRB3      30.35S
BLUEFIELD      CLOUDY    24  16  71 VRB6      30.28S
LEWISBURG      LGT SNOW  27  17  66 NW6       30.30R
$$

WVZ047-281600-
Northern Mountains of West Virginia

CITY           SKY/WX    TMP DP  RH WIND       PRES   REMARKS
ELKINS         LGT SNOW  24  18  77 W5        30.30R
$$

WVZ052-281600-
Eastern Panhandle of West Virginia

CITY           SKY/WX    TMP DP  RH WIND       PRES   REMARKS
MARTINSBURG    PTSUNNY   35  20  54 N12       30.31R
PETERSBURG     CLOUDY    31  17  55 N3        30.34R
$$


USA.gov is the U.S. government's official web portal to all federal, state and local government web resources and services.